Content
SEND FEEDBACK

Daily
Averages
Monthly
Summary
United Kingdom

LEUCHARS, SCOTLAND


Home > Europe > United Kingdom > Scotland
Elevation: 39 feet     Latitude: 56 23N     Longitude: 002 52W

WEATHER
 
SELECT A DAY
Number of Records: 178,431;   Date Range: 7/1/96 - 8/30/14
 
SHARE

PRINT THIS DATA

[ ← Previous Day ]
WEATHER ALMANAC - OCTOBER 15, 2013
[ Next Day → ]
[ °C ]   °F
Weather ElementAverageHighLow
Temperature46.7 °F53.6 °F (1:50 pm)37.4 °F (11:50 pm)
Dewpoint44.3 °F48.2 °F (2:50 pm)37.4 °F (11:50 pm)
Humidity90.9 %100 % (6:50 pm)74 % (12:50 pm)
Barometer29.95 in30.01 in (9:50 pm)29.89 in (4:50 am)
Wind Speed6.2 mph9.2 mph (12:50 am)
Weather ElementAverage
Visibility7 mi
Wind DirectionESE (121.5 °)

Weather ElementTotal
Precipitation---
Heating Degree Days19.5 (Base 65)
Averaged from 34 records on October 15, 2013
WEATHER CONDITIONS BREAKOUT
WIND DIRECTION BREAKOUT
WEATHER BY HOUR - OCTOBER 15, 2013
[ °C ]   °F
Local TimeTemperatureDewpointHumidityBarometerVisibilityWind DirectionWind SpeedGust SpeedPrecipitationEventsConditions
12:50 AM50.0 °F46.4 °F87 %29.92 in6.2 miNNE (20°)9.2 mphMostly Cloudy
1:50 AM48.2 °F46.4 °F93 %29.92 in6.2 miNNE (20°)8.1 mphMostly Cloudy
2:50 AM46.4 °F44.6 °F93 %29.92 in6.2 miNorth (10°)6.9 mphMostly Cloudy
3:50 AM46.0 °F44.0 °F91 %29.92 in16.0 miNNE (30°)8.1 mphPartly Cloudy
3:50 AM46.4 °F44.6 °F93 %29.92 in6.2 miNNE (30°)8.1 mphScattered Clouds
4:50 AM46.4 °F44.6 °F93 %29.89 in6.2 miNNE (20°)8.1 mphMostly Cloudy
5:50 AM46.4 °F44.6 °F93 %29.89 in6.2 miNorth (360°)5.8 mphOvercast
6:50 AM48.2 °F46.4 °F93 %29.89 in6.2 miNorth (350°)6.9 mphMostly Cloudy
6:50 AM48.0 °F46.0 °F89 %29.91 in12.0 miNorth (350°)6.9 mphMostly Cloudy
7:50 AM48.2 °F46.4 °F93 %29.92 in6.2 miNorth (10°)9.2 mphOvercast
8:50 AM48.2 °F44.6 °F87 %29.92 in6.2 miNNE (20°)9.2 mphMostly Cloudy
9:50 AM49.0 °F45.0 °F83 %29.94 in19.0 miNNE (30°)9.2 mphMostly Cloudy
9:50 AM50.0 °F44.6 °F82 %29.92 in6.2 miNNE (30°)9.2 mphMostly Cloudy
10:50 AM50.0 °F46.4 °F87 %29.95 in6.2 miNNE (30°)9.2 mphMostly Cloudy
11:50 AM50.0 °F46.4 °F87 %29.95 in6.2 miNNE (30°)8.1 mphMostly Cloudy
12:50 PM52.0 °F46.0 °F74 %29.96 in16.0 miNNE (20°)8.1 mphMostly Cloudy
12:50 PM51.8 °F46.4 °F82 %29.95 in6.2 miNNE (20°)8.1 mphMostly Cloudy
1:50 PM53.6 °F46.4 °F77 %29.95 in6.2 miNNE (30°)6.9 mphMostly Cloudy
2:50 PM51.8 °F48.2 °F88 %29.95 in6.2 miENE (60°)8.1 mphRainLight Rain Showers
3:50 PM52.0 °F48.0 °F82 %29.97 in22.0 miENE (70°)4.6 mphRainLight Rain Showers
3:50 PM51.8 °F48.2 °F88 %29.95 in6.2 miENE (70°)4.6 mphMostly Cloudy
4:50 PM51.8 °F48.2 °F88 %29.95 in6.2 miNE (40°)3.5 mphMostly Cloudy
5:50 PM50.0 °F46.4 °F87 %29.95 in6.2 miNE (50°)4.6 mphScattered Clouds
6:50 PM45.0 °F44.0 °F97 %29.98 in9.0 miNE (40°)3.5 mphFogPatches of Fog
6:50 PM44.6 °F44.6 °F100 %29.98 in6.2 miNE (40°)3.5 mphFogShallow Fog
7:38 PM42.8 °F42.8 °F100 %29.98 in6.2 miNNE (20°)4.6 mphPartly Cloudy
7:50 PM42.8 °F41.0 °F93 %29.98 in6.2 miNorth (360°)3.5 mphFogShallow Fog
8:50 PM39.2 °F39.2 °F100 %29.98 in0.7 miWest (260°)3.5 mphPartly Cloudy
9:02 PM41.0 °F39.2 °F93 %29.98 in2.2 miWest (280°)4.6 mphFogFog
9:50 PM41.0 °F40.0 °F96 %30.01 in2.0 miWest (280°)4.6 mphFogPatches of Fog
9:50 PM41.0 °F41.0 °F100 %30.01 in4.3 miWest (280°)4.6 mphFogShallow Fog
10:50 PM39.2 °F39.2 °F100 %29.98 in1.2 miNNW (340°)1.2 mphFogFog
11:02 PM39.2 °F39.2 °F100 %29.98 in0.6 miWSW (250°)1.2 mphFogFog
11:50 PM37.4 °F37.4 °F100 %29.98 in1.4 miWest (280°)5.8 mphFogFog
Hourly data recorded from EGQL, located miles away from Leuchars, Scotland







STORIES FROM OUR PARTNERS